Starlink 32525

operational
NORAD ID: 62121 Int'l Des: 2024-222 Owner: SPXS Country: US Constellation: starlink
LEOCIRCULAR

Über Starlink 32525

Beschreibung wird geladen...

Live-Position

3D-Globus wird geladen...

Nächste Überflüge

Höhenverlauf

Altitude vs Time

uPlot chart will show altitude changes over time

Zweizeiliger Elementsatz

1 62121U 24222H 25304.82230840 .00039903 00000-0 14512-2 0 9994
2 62121 43.0006 143.6778 0002072 273.7970 86.2644 15.27592184 53056
Epoch: 31. Okt. 2025 • Age: 8 hours

Aktueller Status

Höhe 483.2 km
Geschwindigkeit 7.63 km/s
Subsatellitenpunkt 20.90°N, 166.5°W
Startdatum 27. Nov. 2024
Alter 0.9 years
Typ internet

Technische Details

Klassifizierung Payload
Masse 730.00 kg
Trockenmasse 700.00 kg
Gesamtmasse 730.00 kg
Länge 0.30 m
Durchmesser 4.10 m
Spannweite 29.00 m
Form Box + pan
Hersteller SPXS
Bus-Typ Starlink V2M
Phasenstatus In Orbit
Besitzer/Staat SPXS/US

Große Konstellationen

Loading constellations...